COSMOS 1275 DEB, 15541

Orbit data source: Space-Track

COSMOS 1275 DEB, 15541 is space debris in LEO originally from a launch on Thu, 04 Jun 1981 UTC launched from the Plesetsk Missile And Space Complex (PKMTR). Debris objects in space refer to the collection of defunct objects orbiting the Earth. Examples of debris include non-operational satellites, rocket bodies, and fragments generated from explosions, collisions, or faulty payload assembly.

Loading next visibility...
Identifier
15541, 1981-053JZ
Orbit
LEO
Country
Flag of CISCIS
Related business
Manufacturer
Unknown
Mission
Spacecraft
Bus & Motor
Unknown
Mass
Unknown
Launch date (UTC)
1981-06-04 (45 years ago)
Launch vehicle
Unknown
Launch site
Plesetsk Missile And Space Complex (PKMTR)
Object type
Payload
Rocket body
Debris
Shape & HBR
Unknown shape, 0.1 m
Radar Cross Section
Small (<0.1 m²)

Expand to show TLE details & history
Last TLE update: 1 day ago

TLE from 1 day ago
0 COSMOS 1275 DEB
1 15541U 81053JZ  26071.39038028  .00000474  00000-0  39242-3 0  9990
2 15541  82.8882  50.3695 0030714 275.5672 238.9972 13.86798258108311
Epoch: 2026-03-12T09:22Z
TLE epoch observation values (Epoch: 2026-03-12T09:22:08.856Z)
Latitude
25.5549°
Longitude
-83.61064°
Altitude
954.607 km
Speed
7.371 km/s
True Right ascension
15h 07m 52s
True Declination
25° 25' 30"
Sunlit
Object was in full shadow at epoch
Visualization orbit readout
Latitude
Unknown
Longitude
Unknown
Altitude
Unknown
Speed
Unknown
Apparent Right ascension
Unknown
Apparent Declination
Unknown
Sunlit
N/A
Visualization observer readout
Local Sidereal Time
14:17:28
Azimuth
Unknown
Elevation
Unknown
Doppler factor
Unknown
Orbital elements
Apogee altitude
959.475 km
Perigee altitude
914.54 km
Semi-major axis
7,315.144 km
Eccentricity
0.00307
Inclination
82.8882°
RAAN
50.3695°
Arg. of periapsis
275.5672°
True anomaly
238.69612°
Mean anomaly
238.9972°
Eccentric anomaly
238.8466°
Mean motion
3.46904 °/min
Orbital period
103.78 mins
BSTAR
0.00039242
Loading maneuver chart data...
Computing Atmospheric mass density...
Loading historical data...
Loading historical data...
Loading historical data...
Loading historical data...
Loading historical data...
Loading historical data...
Loading historical data...

Documentation

Showing up to 5 results
|